Location: La Oliva
(42.2466°N, 2.9955°E)
Time: 08:21:33
(UTC+00:00)

CSL-04 Rocket - Pass Details

Date: 22 April 2021
Orbit: 806 x 860 km, 98.9° (Epoch: 07 May)

Event Time Altitude Azimuth Distance (km) Brightness Sun altitude
Rises 19:16:06 0° 172° (S) 3,316 6.5 -7.5°
Reaches altitude 10° 19:18:27 10° 175° (S) 2,385 5.8 -7.9°
Maximum altitude 19:23:40 66° 257° (WSW) 882 4.1 -8.8°
Drops below altitude 10° 19:28:56 10° 340° (NNW) 2,397 6.8 -9.6°
Sets 19:31:18 0° 344° (NNW) 3,335 7.5 -10.0°
